• Em Portugal
  • Lista de países
  • Para 7 dias
  • Temperatura da água
  • Mapas de satélite
  • Mapa do tempo
  • Widgets de tempo
  • user-avatar
    Iniciar Sessão

    Previsão horária em Silkhet

    Hoje, 18 Setembro, Terça-feira

    Tempo Temperatura Precipitação Vento Pressão Humidade
    00:00 +30°C° 0 mm 1 m/s 752 mmHg 72%
    01:00 +30°C° 0 mm 1 m/s 751 mmHg 74%
    02:00 +30°C° 0 mm 1 m/s 751 mmHg 75%
    03:00 +29°C° 0 mm 1 m/s 751 mmHg 76%
    04:00 +29°C° 0 mm 1 m/s 751 mmHg 78%
    05:00 +29°C° 0 mm 1 m/s 751 mmHg 79%
    06:00 +27°C° 0 mm 0 m/s 751 mmHg 84%
    07:00 +31°C° 0 mm 1 m/s 751 mmHg 78%
    08:00 +32°C° 0 mm 1 m/s 751 mmHg 72%
    09:00 +34°C° 0 mm 1 m/s 751 mmHg 66%
    10:00 +35°C° 0 mm 1 m/s 751 mmHg 61%
    11:00 +37°C° 0 mm 1 m/s 751 mmHg 56%
    12:00 +39°C° 0 mm 1 m/s 751 mmHg 52%
    13:00 +39°C° 0 mm 1 m/s 750 mmHg 51%
    14:00 +39°C° 0 mm 1 m/s 749 mmHg 49%
    15:00 +39°C° 0 mm 1 m/s 749 mmHg 48%
    16:00 +37°C° 0 mm 1 m/s 749 mmHg 52%
    17:00 +35°C° 0 mm 1 m/s 749 mmHg 55%
    18:00 +34°C° 0 mm 1 m/s 749 mmHg 59%
    19:00 +33°C° 0 mm 1 m/s 749 mmHg 61%
    20:00 +33°C° 0 mm 1 m/s 750 mmHg 63%
    21:00 +32°C° 0 mm 1 m/s 751 mmHg 64%
    22:00 +32°C° 0 mm 1 m/s 751 mmHg 66%
    23:00 +31°C° 0 mm 1 m/s 752 mmHg 67%

    Amanhã, 19 Setembro, Quarta-feira

    Tempo Temperatura Precipitação Vento Pressão Humidade
    00:00 +31°C° 0 mm 1 m/s 752 mmHg 69%
    01:00 +31°C° 0 mm 1 m/s 752 mmHg 70%
    02:00 +30°C° 0 mm 1 m/s 751 mmHg 72%
    03:00 +30°C° 0 mm 1 m/s 751 mmHg 73%
    04:00 +30°C° 0 mm 1 m/s 751 mmHg 75%
    05:00 +30°C° 0 mm 1 m/s 752 mmHg 77%
    06:00 +29°C° 0 mm 1 m/s 752 mmHg 79%
    07:00 +31°C° 0 mm 1 m/s 752 mmHg 74%
    08:00 +32°C° 0 mm 1 m/s 752 mmHg 70%
    09:00 +35°C° 0 mm 2 m/s 752 mmHg 65%
    10:00 +36°C° 0 mm 2 m/s 752 mmHg 61%
    11:00 +37°C° 0 mm 2 m/s 752 mmHg 57%
    12:00 +38°C° 0 mm 2 m/s 751 mmHg 53%
    13:00 +39°C° 0 mm 2 m/s 750 mmHg 52%
    14:00 +39°C° 0 mm 2 m/s 750 mmHg 51%
    15:00 +39°C° 0 mm 2 m/s 749 mmHg 49%
    16:00 +37°C° 0 mm 1 m/s 749 mmHg 53%
    17:00 +36°C° 0 mm 1 m/s 749 mmHg 57%
    18:00 +34°C° 0 mm 1 m/s 749 mmHg 62%
    19:00 +34°C° 0 mm 1 m/s 750 mmHg 63%
    20:00 +33°C° 0 mm 1 m/s 751 mmHg 64%
    21:00 +32°C° 0 mm 1 m/s 751 mmHg 65%
    22:00 +31°C° 1.1 mm 2 m/s 752 mmHg 70%
    23:00 +30°C° 1.1 mm 2 m/s 752 mmHg 75%

    Depois de amanhã, 20 Setembro, Quinta-feira

    Tempo Temperatura Precipitação Vento Pressão Humidade
    00:00 +29°C° 1.1 mm 2 m/s 752 mmHg 80%
    01:00 +29°C° 0.7 mm 2 m/s 752 mmHg 83%
    02:00 +29°C° 0.7 mm 2 m/s 752 mmHg 86%
    03:00 +28°C° 0.7 mm 2 m/s 752 mmHg 90%
    04:00 +28°C° 0.7 mm 2 m/s 752 mmHg 91%
    05:00 +28°C° 0.7 mm 2 m/s 753 mmHg 92%
    06:00 +28°C° 0.7 mm 2 m/s 753 mmHg 93%
    07:00 +28°C° 0.4 mm 2 m/s 754 mmHg 92%
    08:00 +28°C° 0.4 mm 2 m/s 754 mmHg 90%
    09:00 +29°C° 0.4 mm 2 m/s 755 mmHg 89%
    10:00 +30°C° 0 mm 2 m/s 754 mmHg 83%
    11:00 +31°C° 0 mm 3 m/s 754 mmHg 76%
    12:00 +34°C° 0 mm 3 m/s 753 mmHg 69%
    13:00 +34°C° 0 mm 2 m/s 753 mmHg 66%
    14:00 +35°C° 0 mm 2 m/s 752 mmHg 64%
    15:00 +35°C° 0 mm 2 m/s 751 mmHg 61%
    16:00 +33°C° 0 mm 1 m/s 752 mmHg 65%
    17:00 +32°C° 0 mm 1 m/s 752 mmHg 69%
    18:00 +31°C° 0 mm 1 m/s 752 mmHg 73%
    19:00 +31°C° 0 mm 1 m/s 753 mmHg 74%
    20:00 +30°C° 0 mm 1 m/s 753 mmHg 74%
    21:00 +30°C° 0 mm 1 m/s 754 mmHg 75%
    22:00 +30°C° 1.2 mm 1 m/s 754 mmHg 77%
    23:00 +29°C° 1.2 mm 1 m/s 754 mmHg 80%

    21 Setembro, Sexta-feira

    Tempo Temperatura Precipitação Vento Pressão Humidade
    00:00 +29°C° 1.2 mm 1 m/s 754 mmHg 82%
    01:00 +29°C° 1.1 mm 1 m/s 754 mmHg 83%
    02:00 +28°C° 1.1 mm 1 m/s 754 mmHg 84%
    03:00 +28°C° 1.1 mm 1 m/s 753 mmHg 85%
    04:00 +28°C° 0.3 mm 1 m/s 754 mmHg 86%
    05:00 +28°C° 0.3 mm 1 m/s 754 mmHg 87%
    06:00 +28°C° 0.3 mm 1 m/s 754 mmHg 88%
    07:00 +29°C° 0 mm 1 m/s 755 mmHg 83%
    08:00 +31°C° 0 mm 1 m/s 755 mmHg 77%
    09:00 +32°C° 0 mm 1 m/s 756 mmHg 71%
    10:00 +34°C° 0 mm 1 m/s 755 mmHg 66%
    11:00 +35°C° 0 mm 1 m/s 755 mmHg 61%
    12:00 +36°C° 0 mm 1 m/s 754 mmHg 56%
    13:00 +37°C° 0 mm 1 m/s 754 mmHg 54%
    14:00 +37°C° 0 mm 1 m/s 753 mmHg 52%
    15:00 +37°C° 0 mm 1 m/s 752 mmHg 51%
    16:00 +36°C° 0 mm 1 m/s 752 mmHg 55%
    17:00 +35°C° 0 mm 1 m/s 753 mmHg 59%
    18:00 +33°C° 0 mm 1 m/s 753 mmHg 63%
    19:00 +32°C° 0.5 mm 2 m/s 754 mmHg 68%
    20:00 +31°C° 0.5 mm 2 m/s 755 mmHg 72%
    21:00 +30°C° 0.5 mm 3 m/s 756 mmHg 76%
    22:00 +30°C° 1.5 mm 2 m/s 756 mmHg 80%
    23:00 +29°C° 1.5 mm 2 m/s 756 mmHg 83%

    22 Setembro, Sábado

    Tempo Temperatura Precipitação Vento Pressão Humidade
    00:00 +29°C° 1.5 mm 2 m/s 756 mmHg 87%
    01:00 +28°C° 0.4 mm 1 m/s 756 mmHg 88%
    02:00 +28°C° 0.4 mm 1 m/s 756 mmHg 88%
    03:00 +26°C° 0.4 mm 0 m/s 755 mmHg 89%
    04:00 +26°C° 0 mm 0 m/s 756 mmHg 89%
    05:00 +28°C° 0 mm 1 m/s 756 mmHg 90%
    06:00 +28°C° 0 mm 1 m/s 756 mmHg 90%
    07:00 +29°C° 0 mm 1 m/s 757 mmHg 84%
    08:00 +31°C° 0 mm 1 m/s 757 mmHg 77%
    09:00 +33°C° 0 mm 1 m/s 757 mmHg 71%
    10:00 +34°C° 0.1 mm 1 m/s 757 mmHg 66%
    11:00 +35°C° 0.1 mm 1 m/s 756 mmHg 61%
    12:00 +36°C° 0.1 mm 1 m/s 756 mmHg 56%
    13:00 +36°C° 0.3 mm 1 m/s 755 mmHg 57%
    14:00 +37°C° 0.3 mm 2 m/s 754 mmHg 57%
    15:00 +37°C° 0.3 mm 2 m/s 754 mmHg 57%
    16:00 +35°C° 0.8 mm 2 m/s 754 mmHg 64%
    17:00 +34°C° 0.8 mm 2 m/s 754 mmHg 71%
    18:00 +31°C° 0.8 mm 3 m/s 754 mmHg 78%
    19:00 +31°C° 0.1 mm 3 m/s 755 mmHg 80%
    20:00 +30°C° 0.1 mm 2 m/s 756 mmHg 82%
    21:00 +30°C° 0.1 mm 2 m/s 757 mmHg 83%
    22:00 +29°C° 0.1 mm 2 m/s 757 mmHg 85%
    23:00 +29°C° 0.1 mm 2 m/s 757 mmHg 86%

    23 Setembro, Domingo

    Tempo Temperatura Precipitação Vento Pressão Humidade
    00:00 +29°C° 0.1 mm 2 m/s 757 mmHg 87%
    01:00 +29°C° 0 mm 1 m/s 756 mmHg 88%
    02:00 +28°C° 0 mm 1 m/s 756 mmHg 89%
    03:00 +28°C° 0 mm 1 m/s 756 mmHg 90%
    04:00 +28°C° 0.1 mm 1 m/s 756 mmHg 90%
    05:00 +28°C° 0.1 mm 1 m/s 757 mmHg 91%
    06:00 +28°C° 0.1 mm 1 m/s 757 mmHg 92%
    07:00 +29°C° 0.1 mm 1 m/s 757 mmHg 87%
    08:00 +30°C° 0.1 mm 1 m/s 758 mmHg 83%
    09:00 +31°C° 0.1 mm 1 m/s 758 mmHg 78%
    10:00 +32°C° 0.1 mm 1 m/s 757 mmHg 72%
    11:00 +34°C° 0.1 mm 1 m/s 757 mmHg 66%
    12:00 +35°C° 0.1 mm 1 m/s 756 mmHg 60%
    13:00 +35°C° 0 mm 1 m/s 755 mmHg 60%
    14:00 +35°C° 0 mm 1 m/s 755 mmHg 59%
    15:00 +36°C° 0 mm 2 m/s 754 mmHg 58%
    16:00 +35°C° 0.1 mm 2 m/s 754 mmHg 63%
    17:00 +33°C° 0.1 mm 1 m/s 754 mmHg 68%
    18:00 +32°C° 0.1 mm 1 m/s 754 mmHg 73%
    19:00 +31°C° 0.7 mm 1 m/s 755 mmHg 76%
    20:00 +30°C° 0.7 mm 1 m/s 756 mmHg 80%
    21:00 +30°C° 0.7 mm 1 m/s 756 mmHg 84%
    22:00 +29°C° 1.7 mm 1 m/s 756 mmHg 85%
    23:00 +29°C° 1.7 mm 2 m/s 756 mmHg 86%
    Mostrar mais